C/2019 K1 ( ATLAS )

Japanese version
Home page
Updated on November 9, 2019

---------------------------------------------------------------------

* Profile

Discovery Date May 16, 2019
Magnitude 17.1 mag
Discoverer Asteroid Terrestrial-Impact Last Alert System (ATLAS) search program

* Pictures

* Orbital Elements

Epoch 2020 Feb. 1.0 TT = JDT 2458880.5
T 2020 Feb. 12.96809 TT                                 Williams
q   2.0121947            (2000.0)            P               Q
z  +0.0001894      Peri.  265.71954     +0.02629730     +0.28888515
 +/-0.0000349      Node    73.37440     +0.31750227     +0.90534986
e   0.9996188      Incl.   87.14143     -0.94789280     +0.31126677
From 162 observations 2019 May 16-July 27, mean residual 0".5.

* Finding Charts

* Magnitudes Graph

        m1 = 9.5 + 5 log d + 10.0 log r

---------------------------------------------------------------------

The orbital elements are published on M.P.E.C. 2019-Q135.
The charts are made with StellaNavigator Ver.10 (AstroArts).
The magnitudes graphs are made with Comet for Windows.

---------------------------------------------------------------------

Copyright(C) Seiichi Yoshida (comet@aerith.net). All rights reserved.